This is the latest recevied weather packets stored in our database for station/object WD4HMR. If no packets are shown the sender has not sent any weather packets the latest 10 day(s).
| Time | Temp. | Humidity | Pressure | Rain* | Wind** | Luminosity | Snow |
|---|---|---|---|---|---|---|---|
| 1778079783 | 22.78° C | 81% | 1015.5 hPa | 0 mm | - | - | - |
| 1778079573 | 22.78° C | 81% | 1015.5 hPa | 0 mm | - | - | - |
| 1778079362 | 22.78° C | 81% | 1015.5 hPa | 0 mm | - | - | - |
| 1778079093 | 22.78° C | 81% | 1015.6 hPa | 0 mm | - | - | - |
| 1778078942 | 22.78° C | 80% | 1015.6 hPa | 0 mm | - | - | - |
| 1778078613 | 22.78° C | 80% | 1015.6 hPa | 0 mm | - | - | - |
| 1778078522 | 22.22° C | 80% | 1015.6 hPa | 0 mm | - | - | - |
| 1778077006 | 21.11° C | 84% | 1015.4 hPa | 0 mm | - | - | - |
| 1778076579 | 21.67° C | 84% | 1015.3 hPa | 0 mm | - | - | - |
| 1778076156 | 21.11° C | 84% | 1015.2 hPa | 0 mm | - | - | - |
| 1778075735 | 21.11° C | 84% | 1015.2 hPa | 0 mm | - | - | - |
| 1778075315 | 21.11° C | 85% | 1015.1 hPa | 0 mm | - | - | - |
| 1778074895 | 20.56° C | 86% | 1015.1 hPa | 0 mm | - | - | - |
| 1778074475 | 20.56° C | 87% | 1014.9 hPa | 0 mm | - | - | - |
| 1778074355 | 20.56° C | 87% | 1014.8 hPa | 0 mm | - | - | - |
| 1778074293 | 20.56° C | 87% | 1014.8 hPa | 0 mm | - | - | - |
| 1778073936 | 20° C | 89% | 1014.6 hPa | 0 mm | - | - | - |
| 1778073814 | 20° C | 89% | 1014.6 hPa | 0 mm | - | - | - |
| 1778073633 | 20° C | 89% | 1014.6 hPa | 0 mm | - | - | - |
| 1778073516 | 20° C | 89% | 1014.7 hPa | 0 mm | - | - | - |
| 1778073333 | 20° C | 89% | 1014.7 hPa | 0 mm | - | - | - |
| 1778073190 | 20° C | 89% | 1014.7 hPa | 0 mm | - | - | - |
| 1778072853 | 20° C | 89% | 1014.7 hPa | 0 mm | - | - | - |
| 1778072760 | 20° C | 89% | 1014.6 hPa | 0 mm | - | - | - |
| 1778072373 | 19.44° C | 90% | 1014.5 hPa | 0 mm | - | - | - |
* Rain latest hour (hover to see other rain measurements)
** Current wind speed in m/s (hover to see current wind gust speed)